ENT151 EPWA-GCFV

Flight info

Callsign ENT151
Flight time N/A
Altitude 32000
Route SOXER7G SOXER N869 TOMTI DCT ASTEL DCT KONAR DCT OKG N869 AMOSA DCT DKB DCT TEDGO/N0459F330 N869 NATOR DCT LUTIX N869 BENOT DCT NEMOS DCT NINTU DCT MEBAK DCT REPSI DCT LERGA DCT MINSO DCT NARAK DCT AGN DCT MAQAB DCT TIVLI N869 ZAR Z245 CJN N10 HIJ/N0459F350 N10 SVL N857 KORNO UN857 TERTO TERTO8S
Aircraft B738/M-SDE2E3FGHIRWXY/LB1

Departure

Time 2026-05-05 11:50
Airport Warsaw Chopin Airport (EPWA)

Arrival

Time N/A
Airport Fuerteventura Airport (GCFV)
Time Latitude Longitude Altitude Speed Heading
2026-05-05 11:33 52.17934 20.96309 361 ft 0 kts 330°
2026-05-05 11:42 52.17921 20.96321 386 ft 2 kts 330°
2026-05-05 11:42 52.17906 20.96335 352 ft 2 kts 330°
2026-05-05 11:42 52.17892 20.96347 361 ft 2 kts 345°
2026-05-05 11:43 52.17891 20.96348 364 ft 0 kts 347°
2026-05-05 11:44 52.17878 20.96352 361 ft 2 kts 348°
2026-05-05 11:44 52.17871 20.96354 361 ft 0 kts 348°
2026-05-05 11:46 52.17877 20.96323 363 ft 6 kts 260°
2026-05-05 11:46 52.17827 20.96209 364 ft 17 kts 239°
2026-05-05 11:46 52.17743 20.96102 365 ft 17 kts 168°
2026-05-05 11:46 52.17640 20.96181 361 ft 16 kts 150°
2026-05-05 11:47 52.17500 20.96302 361 ft 29 kts 152°
2026-05-05 11:47 52.17294 20.96490 365 ft 40 kts 143°
2026-05-05 11:47 52.17023 20.96726 362 ft 49 kts 156°
2026-05-05 11:47 52.16726 20.96978 360 ft 18 kts 150°
2026-05-05 11:48 52.16601 20.97281 358 ft 29 kts 115°
2026-05-05 11:48 52.16516 20.97578 361 ft 28 kts 114°
2026-05-05 11:48 52.16445 20.97802 362 ft 18 kts 153°
2026-05-05 11:49 52.16328 20.97739 361 ft 18 kts 213°
2026-05-05 11:49 52.16317 20.97628 357 ft 0 kts 290°
2026-05-05 11:49 52.16355 20.97484 358 ft 43 kts 294°
2026-05-05 11:49 52.16578 20.96700 364 ft 108 kts 294°
2026-05-05 11:50 52.16971 20.95299 368 ft 161 kts 294°
2026-05-05 11:50 52.17451 20.93420 601 ft 191 kts 289°
2026-05-05 11:50 52.17962 20.91265 869 ft 217 kts 291°
2026-05-05 11:50 52.18310 20.89001 1657 ft 201 kts 260°
2026-05-05 11:51 52.18148 20.86894 2626 ft 195 kts 262°
2026-05-05 11:51 52.18007 20.84530 2999 ft 211 kts 262°
2026-05-05 11:51 52.18041 20.82102 3140 ft 232 kts 281°
2026-05-05 11:51 52.18498 20.79452 3511 ft 251 kts 281°
2026-05-05 11:52 52.18913 20.76637 4026 ft 261 kts 281°
2026-05-05 11:52 52.19288 20.73760 4779 ft 262 kts 279°
2026-05-05 11:52 52.19631 20.70791 5588 ft 259 kts 265°
2026-05-05 11:52 52.19306 20.67970 6308 ft 256 kts 249°
2026-05-05 11:53 52.18727 20.65289 6965 ft 258 kts 247°
2026-05-05 11:53 52.18082 20.62530 7584 ft 263 kts 247°
2026-05-05 11:53 52.17436 20.59722 8283 ft 264 kts 248°
2026-05-05 11:53 52.16800 20.56915 8975 ft 266 kts 248°
2026-05-05 11:54 52.16167 20.54083 9669 ft 267 kts 248°
2026-05-05 11:54 52.15551 20.51325 10206 ft 272 kts 248°
2026-05-05 11:54 52.14905 20.48310 10390 ft 291 kts 250°
2026-05-05 11:54 52.14278 20.45062 10565 ft 310 kts 251°
2026-05-05 11:55 52.13632 20.41623 10725 ft 329 kts 251°
2026-05-05 11:55 52.12957 20.38017 10898 ft 345 kts 251°
2026-05-05 11:55 52.12240 20.34218 11046 ft 361 kts 251°
2026-05-05 11:55 52.11484 20.30240 11299 ft 372 kts 251°
2026-05-05 11:56 52.10710 20.26191 11854 ft 374 kts 251°
2026-05-05 11:56 52.09935 20.22134 12467 ft 375 kts 251°
2026-05-05 11:56 52.09158 20.18076 12949 ft 379 kts 251°
2026-05-05 11:56 52.08365 20.13953 13452 ft 382 kts 251°
2026-05-05 11:57 52.07567 20.09807 13942 ft 384 kts 251°
2026-05-05 11:57 52.06761 20.05644 14381 ft 388 kts 251°
2026-05-05 11:57 52.05947 20.01452 14824 ft 390 kts 251°
2026-05-05 11:57 52.05127 19.97243 15264 ft 393 kts 251°
2026-05-05 11:58 52.04578 19.94428 15545 ft 396 kts 251°
2026-05-05 11:58 52.03722 19.90166 15992 ft 398 kts 250°
2026-05-05 11:58 52.02819 19.85965 16399 ft 401 kts 249°
2026-05-05 11:58 52.01562 19.80245 16968 ft 404 kts 249°
2026-05-05 11:59 52.00975 19.77576 17201 ft 406 kts 249°
2026-05-05 11:59 52.00010 19.73166 17602 ft 409 kts 249°
2026-05-05 11:59 51.99072 19.68857 17993 ft 412 kts 249°
2026-05-05 11:59 51.98119 19.64473 18344 ft 415 kts 249°
2026-05-05 12:00 51.97140 19.59981 18715 ft 417 kts 249°
2026-05-05 12:00 51.96168 19.55532 19098 ft 418 kts 249°
2026-05-05 12:00 51.95185 19.51074 19461 ft 420 kts 249°
2026-05-05 12:00 51.94201 19.46623 19779 ft 423 kts 249°
2026-05-05 12:01 51.93213 19.42160 20159 ft 424 kts 249°
2026-05-05 12:01 51.92214 19.37661 20503 ft 426 kts 249°
2026-05-05 12:01 51.91208 19.33128 20828 ft 428 kts 249°
2026-05-05 12:01 51.90203 19.28612 21140 ft 430 kts 249°
2026-05-05 12:02 51.89205 19.24141 21443 ft 432 kts 249°
2026-05-05 12:02 51.88160 19.19460 21768 ft 433 kts 249°
2026-05-05 12:02 51.87125 19.14840 22059 ft 435 kts 249°
2026-05-05 12:02 51.86093 19.10222 22343 ft 438 kts 250°
2026-05-05 12:03 51.85077 19.05574 22634 ft 439 kts 250°
2026-05-05 12:03 51.84062 19.00891 22912 ft 441 kts 250°
2026-05-05 12:03 51.83042 18.96189 23192 ft 443 kts 250°
2026-05-05 12:03 51.82022 18.91509 23452 ft 445 kts 250°
2026-05-05 12:04 51.80983 18.86774 23681 ft 446 kts 250°
2026-05-05 12:04 51.79941 18.82048 23901 ft 448 kts 250°
2026-05-05 12:04 51.78888 18.77283 24112 ft 450 kts 250°
2026-05-05 12:04 51.77830 18.72510 24339 ft 451 kts 250°
2026-05-05 12:05 51.76783 18.67796 24579 ft 452 kts 250°
2026-05-05 12:05 51.75707 18.62959 24801 ft 453 kts 250°
2026-05-05 12:05 51.74636 18.58151 25060 ft 453 kts 250°
2026-05-05 12:05 51.73581 18.53428 25374 ft 452 kts 250°
2026-05-05 12:06 51.72498 18.48586 25745 ft 450 kts 250°
2026-05-05 12:06 51.71447 18.43898 26069 ft 449 kts 250°
2026-05-05 12:06 51.70386 18.39176 26341 ft 449 kts 250°
2026-05-05 12:06 51.69328 18.34484 26646 ft 448 kts 250°
2026-05-05 12:07 51.68255 18.29731 26981 ft 447 kts 250°
2026-05-05 12:07 51.67192 18.25033 27306 ft 446 kts 250°
2026-05-05 12:07 51.66127 18.20338 27626 ft 445 kts 250°
2026-05-05 12:07 51.65085 18.15755 27922 ft 445 kts 250°
2026-05-05 12:08 51.64018 18.11072 28223 ft 444 kts 250°
2026-05-05 12:08 51.62954 18.06407 28539 ft 443 kts 250°
2026-05-05 12:08 51.61897 18.01786 28848 ft 442 kts 250°
2026-05-05 12:08 51.60837 17.97159 29131 ft 441 kts 250°
2026-05-05 12:09 51.59780 17.92559 29433 ft 440 kts 250°
2026-05-05 12:09 51.58761 17.88133 29705 ft 440 kts 249°
2026-05-05 12:09 51.57700 17.83561 29951 ft 440 kts 249°
2026-05-05 12:09 51.56620 17.78945 30169 ft 439 kts 249°
2026-05-05 12:10 51.55549 17.74376 30410 ft 438 kts 249°
2026-05-05 12:10 51.54480 17.69828 30640 ft 437 kts 249°
2026-05-05 12:10 51.53403 17.65251 30864 ft 437 kts 249°
2026-05-05 12:10 51.52345 17.60757 31084 ft 436 kts 249°
2026-05-05 12:11 51.51270 17.56198 31321 ft 435 kts 249°
2026-05-05 12:11 51.50192 17.51637 31562 ft 434 kts 249°
2026-05-05 12:11 51.49141 17.47196 31765 ft 434 kts 249°
2026-05-05 12:11 51.48054 17.42614 31999 ft 433 kts 249°
2026-05-05 12:12 51.47008 17.38214 32195 ft 432 kts 249°
2026-05-05 12:12 51.45932 17.33683 32405 ft 431 kts 249°
2026-05-05 12:12 51.44855 17.29135 32623 ft 430 kts 249°
2026-05-05 12:12 51.43809 17.24725 32838 ft 429 kts 250°
2026-05-05 12:13 51.42737 17.20209 33082 ft 427 kts 250°
2026-05-05 12:13 51.41676 17.15744 33335 ft 425 kts 250°
2026-05-05 12:13 51.40642 17.11405 33549 ft 424 kts 249°
2026-05-05 12:13 51.39589 17.06998 33713 ft 424 kts 249°
2026-05-05 12:14 51.37471 16.98159 33813 ft 425 kts 249°
2026-05-05 12:14 51.35366 16.89411 33818 ft 424 kts 249°
2026-05-05 12:15 51.33228 16.80564 33820 ft 423 kts 249°
2026-05-05 12:15 51.31106 16.71818 33810 ft 422 kts 249°
2026-05-05 12:16 51.29028 16.63283 33819 ft 421 kts 249°
2026-05-05 12:16 51.26911 16.54625 33816 ft 420 kts 249°
2026-05-05 12:17 51.24782 16.45951 33824 ft 419 kts 249°
2026-05-05 12:17 51.22726 16.37610 33832 ft 419 kts 249°
2026-05-05 12:18 51.20585 16.28953 33831 ft 419 kts 249°
2026-05-05 12:18 51.18440 16.20316 33830 ft 419 kts 249°
2026-05-05 12:19 51.16301 16.11734 33833 ft 418 kts 249°
2026-05-05 12:19 51.14148 16.03130 33833 ft 418 kts 249°
2026-05-05 12:20 51.11992 15.94547 33832 ft 418 kts 249°
2026-05-05 12:20 51.09838 15.86006 33834 ft 418 kts 249°
2026-05-05 12:21 51.07755 15.77776 33833 ft 417 kts 249°
2026-05-05 12:21 51.05592 15.69261 33840 ft 417 kts 248°
2026-05-05 12:22 51.03445 15.60831 33833 ft 417 kts 248°
2026-05-05 12:22 51.01240 15.52225 33836 ft 417 kts 248°
2026-05-05 12:23 50.99026 15.43660 33832 ft 417 kts 248°
2026-05-05 12:23 50.96842 15.35235 33831 ft 417 kts 248°
2026-05-05 12:24 50.94719 15.26732 33829 ft 416 kts 251°
2026-05-05 12:24 50.93062 15.18635 33841 ft 416 kts 252°
2026-05-05 12:25 50.91316 15.09881 33826 ft 417 kts 252°
2026-05-05 12:25 50.89532 15.01139 33837 ft 417 kts 252°
2026-05-05 12:26 50.87764 14.92576 33831 ft 418 kts 252°
2026-05-05 12:26 50.85923 14.83760 33833 ft 418 kts 251°
2026-05-05 12:27 50.83984 14.75088 33830 ft 418 kts 250°
2026-05-05 12:27 50.82038 14.66563 33836 ft 418 kts 250°
2026-05-05 12:28 50.80071 14.57933 33834 ft 418 kts 250°
2026-05-05 12:28 50.78125 14.49386 33838 ft 418 kts 250°
2026-05-05 12:29 50.76165 14.40797 33831 ft 419 kts 250°
2026-05-05 12:29 50.74174 14.32110 33828 ft 419 kts 250°
2026-05-05 12:30 50.72182 14.23453 33834 ft 419 kts 250°
2026-05-05 12:30 50.70231 14.15006 33830 ft 420 kts 250°
2026-05-05 12:31 50.68525 14.07650 33831 ft 420 kts 250°
2026-05-05 12:31 50.66492 13.98915 33838 ft 420 kts 250°
2026-05-05 12:32 50.64474 13.90280 33831 ft 420 kts 249°
2026-05-05 12:32 50.62464 13.81712 33831 ft 419 kts 249°
2026-05-05 12:33 50.60435 13.73101 33827 ft 419 kts 249°
2026-05-05 12:33 50.58423 13.64590 33830 ft 419 kts 249°
2026-05-05 12:34 50.56351 13.55867 33827 ft 419 kts 249°
2026-05-05 12:34 50.54578 13.48427 33814 ft 419 kts 249°
2026-05-05 12:35 50.53008 13.41858 33819 ft 419 kts 249°
2026-05-05 12:35 50.51077 13.33807 33824 ft 419 kts 249°
2026-05-05 12:36 50.49386 13.26784 33804 ft 419 kts 249°
2026-05-05 12:36 50.47326 13.18248 33824 ft 420 kts 249°
2026-05-05 12:37 50.45355 13.10230 33829 ft 420 kts 245°
2026-05-05 12:37 50.42400 13.02710 33821 ft 421 kts 230°
2026-05-05 12:38 50.38602 12.96089 33826 ft 422 kts 228°
2026-05-05 12:38 50.34963 12.89841 33821 ft 423 kts 229°
2026-05-05 12:39 50.31063 12.83086 33824 ft 425 kts 229°
2026-05-05 12:39 50.27329 12.76589 33833 ft 426 kts 229°
2026-05-05 12:40 50.23319 12.69620 33818 ft 428 kts 229°
2026-05-05 12:40 50.19332 12.62711 33824 ft 428 kts 229°
2026-05-05 12:41 50.15338 12.55809 33815 ft 428 kts 228°
2026-05-05 12:41 50.11343 12.48922 33808 ft 428 kts 228°
2026-05-05 12:42 50.07449 12.41923 33795 ft 426 kts 235°
2026-05-05 12:42 50.04717 12.33846 33807 ft 425 kts 248°
2026-05-05 12:43 50.02617 12.25232 33795 ft 424 kts 248°
2026-05-05 12:43 50.00866 12.18129 33798 ft 423 kts 248°
2026-05-05 12:44 49.98730 12.09614 33793 ft 422 kts 247°
2026-05-05 12:44 49.96586 12.01130 33791 ft 421 kts 247°
2026-05-05 12:45 49.94441 11.92676 33795 ft 421 kts 247°
2026-05-05 12:45 49.92331 11.84204 33795 ft 420 kts 247°
2026-05-05 12:46 49.90232 11.75734 33784 ft 420 kts 247°
2026-05-05 12:46 49.88133 11.67330 33795 ft 420 kts 247°
2026-05-05 12:47 49.86122 11.58808 33787 ft 420 kts 248°
2026-05-05 12:47 49.84078 11.50325 33797 ft 419 kts 245°
2026-05-05 12:48 49.81801 11.42001 33788 ft 419 kts 245°
2026-05-05 12:48 49.79613 11.33636 33792 ft 420 kts 247°
2026-05-05 12:49 49.77460 11.25231 33796 ft 417 kts 240°
2026-05-05 12:49 49.74169 11.17924 33797 ft 414 kts 225°
2026-05-05 12:50 49.70148 11.11587 33802 ft 415 kts 225°
2026-05-05 12:50 49.66136 11.05173 33806 ft 415 kts 225°
2026-05-05 12:51 49.62112 10.98771 33803 ft 415 kts 225°
2026-05-05 12:51 49.58100 10.92444 33800 ft 415 kts 224°
2026-05-05 12:52 49.54069 10.86090 33800 ft 414 kts 224°
2026-05-05 12:52 49.50038 10.79747 33802 ft 414 kts 224°
2026-05-05 12:53 49.46030 10.73419 33807 ft 413 kts 224°
2026-05-05 12:53 49.42020 10.67094 33816 ft 412 kts 224°
2026-05-05 12:54 49.36013 10.57649 33836 ft 411 kts 224°
2026-05-05 12:55 49.32011 10.51377 33844 ft 411 kts 223°
2026-05-05 12:55 49.28005 10.45115 33847 ft 411 kts 223°
2026-05-05 12:56 49.23995 10.38862 33843 ft 412 kts 223°
2026-05-05 12:56 49.20001 10.32647 33847 ft 412 kts 223°
2026-05-05 12:57 49.15970 10.26390 33847 ft 413 kts 223°
2026-05-05 12:57 49.12139 10.19839 33847 ft 416 kts 228°
2026-05-05 12:58 49.08508 10.12915 33842 ft 417 kts 229°
2026-05-05 12:58 49.04872 10.05991 33830 ft 419 kts 228°
2026-05-05 12:59 49.01215 9.99078 33844 ft 420 kts 228°
2026-05-05 12:59 48.97518 9.92128 33830 ft 423 kts 228°
2026-05-05 13:00 48.91979 9.81751 33829 ft 423 kts 228°
2026-05-05 13:01 48.84560 9.67913 33847 ft 422 kts 227°
2026-05-05 13:01 48.80851 9.61023 33848 ft 421 kts 227°
2026-05-05 13:02 48.77140 9.54146 33850 ft 421 kts 227°
2026-05-05 13:02 48.73426 9.47282 33850 ft 421 kts 227°
2026-05-05 13:03 48.69707 9.40425 33862 ft 421 kts 227°
2026-05-05 13:03 48.65987 9.33582 33855 ft 421 kts 227°
2026-05-05 13:04 48.62279 9.26780 33857 ft 422 kts 227°
2026-05-05 13:04 48.58774 9.19640 33865 ft 424 kts 231°
2026-05-05 13:05 48.55363 9.12321 33858 ft 428 kts 231°
2026-05-05 13:05 48.51922 9.04972 33855 ft 429 kts 231°
2026-05-05 13:06 48.48451 8.97624 33856 ft 430 kts 231°
2026-05-05 13:06 48.44966 8.90284 33858 ft 430 kts 231°
2026-05-05 13:07 48.41478 8.82961 33863 ft 431 kts 230°
2026-05-05 13:07 48.37977 8.75631 33862 ft 432 kts 230°
2026-05-05 13:08 48.34487 8.68340 33863 ft 432 kts 230°
2026-05-05 13:08 48.30975 8.61025 33868 ft 432 kts 230°
2026-05-05 13:09 48.27449 8.53698 33872 ft 433 kts 230°
2026-05-05 13:09 48.23918 8.46382 33872 ft 433 kts 230°
2026-05-05 13:10 48.20378 8.39064 33871 ft 433 kts 230°
2026-05-05 13:10 48.16564 8.32110 33878 ft 429 kts 220°
2026-05-05 13:11 48.11772 8.26905 33889 ft 425 kts 210°
2026-05-05 13:11 48.06767 8.22172 33890 ft 426 kts 210°
2026-05-05 13:12 48.01752 8.17403 33878 ft 428 kts 210°
2026-05-05 13:12 47.96776 8.12643 33886 ft 429 kts 211°
2026-05-05 13:13 47.91732 8.07815 33881 ft 431 kts 211°
2026-05-05 13:13 47.86686 8.02994 33882 ft 431 kts 211°
2026-05-05 13:14 47.81629 7.98174 33883 ft 432 kts 211°
2026-05-05 13:14 47.76562 7.93357 33880 ft 432 kts 211°
2026-05-05 13:15 47.71502 7.88559 33877 ft 432 kts 211°
2026-05-05 13:15 47.66465 7.83793 33866 ft 431 kts 211°
2026-05-05 13:16 47.61409 7.79019 33863 ft 431 kts 211°
2026-05-05 13:16 47.56345 7.74250 33861 ft 430 kts 211°
2026-05-05 13:17 47.51296 7.69506 33856 ft 429 kts 211°
2026-05-05 13:17 47.46254 7.64779 33865 ft 429 kts 211°
2026-05-05 13:18 47.41219 7.60070 33862 ft 428 kts 211°
2026-05-05 13:18 47.36194 7.55380 33892 ft 427 kts 211°
2026-05-05 13:19 47.31174 7.50706 33887 ft 426 kts 212°
2026-05-05 13:19 47.26167 7.46053 33888 ft 425 kts 212°
2026-05-05 13:20 47.21156 7.41407 33891 ft 425 kts 212°
2026-05-05 13:20 47.16377 7.36424 33882 ft 425 kts 221°
2026-05-05 13:21 47.12514 7.29861 33895 ft 425 kts 230°
2026-05-05 13:21 47.08884 7.22999 33890 ft 425 kts 230°
2026-05-05 13:22 47.05214 7.16216 33885 ft 424 kts 230°
2026-05-05 13:22 47.01516 7.09466 33900 ft 424 kts 229°
2026-05-05 13:23 46.97820 7.02735 33907 ft 424 kts 230°
2026-05-05 13:23 46.94123 6.96009 33911 ft 424 kts 229°
2026-05-05 13:24 46.90426 6.89300 33912 ft 424 kts 229°
2026-05-05 13:24 46.86720 6.82593 33920 ft 424 kts 229°
2026-05-05 13:25 46.83040 6.75949 33908 ft 423 kts 229°
2026-05-05 13:25 46.79333 6.69270 33906 ft 423 kts 229°
2026-05-05 13:26 46.75623 6.62598 33901 ft 423 kts 229°